EHI
0 0 0 0 0 0 0 0 0 0 0 0 0 0 0 0 0 0 0 0 0 0 0 0 0 0 0 0 0 0 0 0 0 0 0 0 0 0 0 0 0 0 0
0 0 0 0 0 0 0 0 0 0 0 0 0 0 0 0 0 0 0 0 0 0 0 0 0 0 0 0 0 0 0 0 0 0 0 0 0 0 0 0 0 0 0
0 0 0 0 0 0 0 0 0 0 0 0 0 0 0 0 0 0 0 0 0 0 0 0 0 0 0 0 0 0 0 0 0 0 0 0 0 0 0 0 0 0 0
0 0 0 0 0 0 0 0 0 0 0 0 0 0 0 0 0 0 0 0 0 0 0 0 0 0 0 0 0 0 0 0 0 0 0 0 0 0 0 0 0 0 0
0 0 0 0 0 0 0 0 0 0 0 0 0 0 0 0 0 0 0 0 0 0 0 0 0 0 0 0 0 0 0 0 0 0 0 0 0 0 0 0 0 0 0
0 0 0 0 0 0 0 0 0 0 0 0 0 0 0 0 0 0 0 0 0 0 0 0 0 0 0 0 0 0 0 0 0 0 0 0 0 0 0 0 0 0 0
0 0 0 0 0 0 0 0 0 0 0 0 0 0 0 0 0 0 0 0 0 0 0 0 0 0 0 0 0 0 0 0 0 0 0 0 0 0 0 0 0 0 0
0 0 0 0 0 0 0 0 0 0 0 0 0 0 0 0 0 0 0 0 0 0 0 0 0 0 0 0 0 0 0 0 0 0 0 0 0 0 0 0 0 0 0
0 0 0 0 0 0 0 0 0 0 0 0 0 0 0 0 0 0 0 0 0 0 0 0 0 0 0 0 0 0 0 0 0 0 0 0 0 0 0 0 0 0 0
0 0 0 0 0 0 0 0 0 0 0 0 0 0 0 0 0 0 0 0 0 0 0 0 0 0 0 0 0 0 0 0 0 0 0 0 0 0 0 0 0 0 0
0 0 0 0 0 0 0 0 0 0 0 0 0 0 0 0 0 0 0 0 0 0 0 0 0 0 0 0 0 0 0 0 0 0 0 0 0 0 0 0 0 0 0
0 0 0 0 0 0 0 0 0 0 0 0 0 0 0 0 0 0 0 0 0 0 0 0 0 0 0 0 0 0 0 0 0 0 0 0 0 0 0 0 0 0 0
0 0 0 0 0 0 0 0 0 0 0 0 0 0 0 0 0 0 0 0 0 0 0 0 0 0 0 0 0 0 0 0 0 0 0 0 0 0 0 0 0 0 0
0 0 0 0 0 0 0 0 0 0 0 0 0 0 0 0 0 0 0 0 0 0 0 0 0 0 0 0 0 0 0 0 0 0 0 0 0 0 0 0 0 0 0
0 0 0 0 0 0 0 0 0 0 0 0 0 0 0 0 0 0 0 0 0 0 0 0 0 0 0 0 0 0 0 0 0 0 0 0 0 0 0 0 0 0 0
0 0 0 0 0 0 0 0 0 0 0 0 0 0 0 0 0 0 0 0 0 0 0 0 0 0 0 0 0 0 0 0 0 0 0 0 0 0 0 0 0 0 0
0 0 0 0 0 0 0 0 0 0 0 0 0 0 0 0 0 0 0 0 0 0 0 0 0 0 0 0 0 0 0 0 0 0 0 0 0 0 0 0 0 0 0
0 0 0 0 0 0 0 0 0 0 0 0 0 0 0 0 0 0 0 0 0 0 0 0 0 0 0 0 0 0 0 0 0 0 0 0 0 0 0 0 0 0 0
0 0 0 0 0 0 0 0 0 0 0 0 0 0 0 0 0 0 0 0 0 0 0 0 0 0 0 0 0 0 0 0 0 0 0 0 0 0 0 0 0 0 0
0 0 0 0 0 0 0 0 0 0 0 0 0 0 0 0 0 0 0 0 0 0 0 0 0 0 0 0 0 0 0 0 0 0 0 0 0 0 0 0 0 0 0
0 0 0 0 0 0 0 0 0 0 0 0 0 0 0 0 0 0 0 0 0 0 0 0 0 0 0 0 0 0 0 0 0 0 0 0 0 0 0 0 0 0 0
0 0 0 0 0 0 0 0 0 0 0 0 0 0 0 0 0 0 0 0 0 0 0 0 0 0 0 0 0 0 0 0 0 0 0 0 0 0 0 0 0 0 0
0 0 0 0 0 0 0 0 0 0 0 0 0 0 0 0 0 0 0 0 0 0 0 0 0 0 0 0 0 0 0 0 0 0 0 0 0 0 0 0 0 0 0
0 0 0 0 0 0 0 0 0 0 0 0 0 0 0 0 0 0 0 0 0 0 0 0 0 0 0 0 0 0 0 0 0 0 0 0 0 0 0 0 0 0 0
0 0 0 0 0 0 0 0 0 0 0 0 0 0 0 0 0 0 0 0 0 0 0 0 0 0 0 0 0 0 0 0 0 0 0 0 0 0 0 0 0 0 0
0 0 0 0 0 0 0 0 0 0 0 0 0 0 0 0 0 0 0 0 0 0 0 0 0 0 0 0 0 0 0 0 0 0 0 0 0 0 0 0 0 0 0
Wind_Speed
3 2 2 1 1 1 1 2 2 2 2 3 4 4 5 5 5 5 6 6 6 7 6 7 8 7 6 5 5 6 6 6 10 9 6 5 6 7 7 5 6 6 7
2 1 1 1 1 1 1 2 2 3 3 3 4 4 5 5 5 6 7 6 6 7 7 7 8 7 7 6 6 7 6 6 7 10 7 6 6 6 6 6 7 6 6
2 1 1 1 1 1 2 2 2 3 3 4 4 4 5 5 5 6 6 6 7 7 7 7 8 7 8 6 6 6 6 6 6 7 8 6 5 6 6 6 7 5 6
1 1 0 1 1 1 2 2 2 3 3 4 4 5 5 5 6 6 6 6 7 7 7 7 8 8 8 8 7 7 6 6 6 6 7 6 5 5 4 5 6 4 5
1 0 0 1 1 1 2 2 2 3 4 4 4 5 5 5 5 6 6 7 8 8 8 8 8 10 12 9 7 7 6 6 6 6 6 6 5 4 4 4 5 5 5
1 0 1 1 1 2 2 2 3 3 4 4 4 5 6 6 9 12 10 7 7 8 8 8 8 9 10 13 14 12 10 8 7 6 6 6 7 5 4 4 4 5 5
1 1 1 1 2 2 2 2 3 4 4 4 5 5 6 7 11 13 13 8 7 7 7 7 7 7 9 7 9 11 10 12 12 8 7 8 7 6 5 5 4 4 5
1 1 1 1 2 2 2 3 3 3 4 4 5 6 6 8 12 13 13 8 6 6 6 7 7 7 7 7 6 6 6 6 7 6 5 6 6 5 5 5 4 4 3
1 2 2 2 2 3 3 3 3 3 4 4 5 6 6 8 11 12 12 5 5 6 6 6 6 6 9 10 6 5 6 5 5 6 6 6 7 7 5 2 2 2 3
2 2 3 2 2 3 4 4 3 3 4 5 6 6 6 7 10 11 11 4 4 5 4 5 7 8 9 8 5 4 5 5 4 4 4 5 4 4 5 2 2 2 2
2 3 3 3 3 3 3 3 4 4 5 5 6 6 6 6 8 10 10 4 3 4 4 4 4 9 10 9 7 4 5 6 4 3 3 2 3 2 2 2 1 1 1
3 3 3 3 4 4 3 3 3 4 4 5 5 5 4 4 6 8 9 8 7 4 3 3 4 9 9 9 7 6 7 6 2 2 2 2 2 2 2 2 3 2 1
3 3 3 4 3 3 3 4 4 3 3 4 4 5 5 4 5 8 9 9 8 4 3 6 8 9 9 7 7 7 6 2 1 1 1 2 2 1 1 2 3 3 4
3 3 3 3 4 3 3 2 3 3 4 4 4 5 5 4 4 4 3 4 5 5 4 6 8 8 6 6 5 4 2 1 1 1 1 1 1 1 1 1 2 2 3
4 4 3 3 3 4 3 3 3 3 4 5 4 4 5 5 6 9 6 4 3 3 4 3 3 3 3 3 2 2 2 2 1 1 1 1 1 1 1 2 2 2 3
4 4 3 3 3 3 4 4 6 6 9 9 9 8 6 8 10 10 10 9 8 7 5 3 3 3 3 2 2 2 2 2 2 1 1 1 1 1 2 2 2 2 3
4 4 3 3 3 4 4 4 5 7 8 9 9 10 9 9 9 9 9 8 7 6 3 2 2 2 2 2 2 2 2 2 1 1 1 1 1 1 2 2 2 2 3
4 5 5 3 3 3 4 4 4 4 5 5 6 9 9 9 9 9 9 7 4 4 2 2 2 2 2 1 1 1 1 1 1 1 1 1 1 1 2 2 2 2 2
4 4 3 3 3 3 4 4 3 4 4 4 4 5 8 8 8 8 7 3 3 3 3 2 2 2 1 1 1 1 1 1 1 1 1 2 1 2 2 2 2 3 3
4 8 7 4 4 4 3 3 3 3 3 3 4 4 4 4 3 4 4 3 3 3 3 2 2 2 1 1 1 1 1 1 1 1 1 2 1 1 2 2 2 2 3
4 5 8 5 4 3 3 4 3 3 3 3 3 4 6 3 3 3 3 3 3 3 3 2 2 1 1 1 1 1 1 1 1 1 1 1 1 1 2 2 2 3 3
4 4 4 4 4 4 4 3 3 3 3 4 3 4 7 4 3 3 3 3 3 3 2 2 2 1 1 1 0 0 0 1 1 1 1 1 1 2 2 2 3 3 3
3 4 4 3 3 5 5 3 3 3 3 3 3 3 3 3 3 3 3 3 3 3 3 2 2 1 1 1 1 0 0 0 0 0 1 1 1 2 2 3 3 3 3
3 3 3 3 3 3 3 3 3 3 3 3 3 3 3 3 3 3 3 3 3 3 3 2 2 2 2 2 1 1 0 0 0 1 1 2 2 2 2 3 3 4 4
3 3 3 3 3 3 3 3 3 3 3 3 3 3 3 3 3 3 3 3 3 3 4 3 2 2 2 2 1 1 1 1 2 2 1 2 3 3 3 4 4 4 4
3 3 3 3 3 3 3 3 3 3 3 3 3 3 3 3 3 3 3 3 3 3 3 3 3 3 2 1 1 1 2 2 3 4 2 2 3 3 4 4 5 5 5
Wind_Direction
144 155 159 170 179 190 219 230 237 252 257 267 276 279 280 279 278 277 274 275 275 276 276 274 272 269 263 260 258 257 255 256 274 285 284 288 288 293 299 300 299 294 296
135 140 149 157 174 217 241 253 252 256 259 266 276 281 283 287 286 286 283 279 276 277 275 278 280 278 269 265 262 260 258 255 265 282 290 287 283 284 290 295 299 299 300
114 113 126 165 204 239 253 263 268 268 275 279 279 280 283 285 286 286 286 285 279 275 275 275 278 278 275 272 270 267 264 264 260 271 283 285 286 291 294 295 298 300 304
107 120 168 243 253 260 268 270 275 277 278 278 281 282 284 288 288 289 292 288 282 280 278 275 276 272 270 272 272 265 264 265 265 266 275 281 286 286 285 295 304 307 310
105 119 246 283 300 297 292 290 291 288 287 281 284 287 288 288 285 293 293 289 285 286 284 279 277 277 272 271 275 271 262 260 265 265 271 283 288 289 284 289 299 311 310
77 8 337 341 329 311 296 295 294 290 288 287 285 288 289 291 297 300 300 290 284 282 284 285 282 279 277 279 281 281 272 265 265 263 269 272 280 283 288 294 297 307 306
14 350 353 339 318 306 308 299 286 284 288 289 287 287 286 287 295 298 300 301 287 280 279 282 287 287 289 282 283 284 279 272 265 259 261 264 272 276 276 282 287 293 293
357 348 341 329 310 307 304 293 291 290 290 292 293 291 292 291 298 301 303 300 292 285 278 276 279 283 284 286 285 287 283 277 271 268 259 267 273 270 263 264 269 289 303
350 341 333 324 310 305 298 293 293 299 299 294 292 291 290 293 299 303 307 296 291 293 293 292 288 281 289 295 293 292 296 299 303 295 290 288 288 289 286 286 285 291 305
342 335 323 310 303 299 295 295 296 295 294 297 295 292 289 291 300 308 312 299 294 299 302 304 305 304 302 303 293 288 294 299 306 313 315 312 303 304 309 278 251 256 293
340 332 325 320 307 297 297 301 302 303 302 299 297 295 292 298 307 312 314 311 298 301 307 313 315 320 320 318 314 298 291 299 307 308 311 319 324 332 341 343 331 241 256
342 333 329 324 317 315 309 306 304 305 302 301 303 304 303 306 312 314 317 321 321 311 308 311 314 321 324 324 319 313 315 316 311 313 325 331 337 345 352 359 12 27 20
342 335 327 322 319 315 309 308 310 310 304 304 308 309 314 316 313 316 319 322 329 326 316 319 322 324 326 327 326 323 326 329 322 324 319 317 324 331 349 16 28 36 38
332 322 319 319 316 314 309 305 307 304 303 306 308 310 312 315 319 316 311 313 317 317 314 317 323 326 324 321 325 335 338 327 315 311 302 317 340 356 6 27 33 26 47
327 318 315 313 311 311 309 299 297 283 294 301 296 298 304 306 310 314 317 313 309 304 313 316 326 328 333 331 335 343 349 346 350 349 351 7 8 11 21 32 39 40 61
326 322 316 314 311 310 311 316 316 309 311 308 305 303 298 303 313 320 323 325 325 322 322 320 322 321 319 324 336 345 354 0 355 353 9 11 18 28 43 39 43 64 75
323 318 316 316 313 311 312 312 314 321 321 318 319 319 319 319 320 324 326 330 330 328 324 314 308 308 311 323 334 339 341 347 347 351 11 27 37 49 63 60 58 72 73
320 315 315 308 304 304 304 303 304 310 316 319 323 324 327 329 329 329 327 332 335 333 317 307 304 303 309 323 330 341 351 358 7 6 27 44 61 67 71 71 72 83 87
316 309 306 302 301 301 301 303 305 306 308 313 321 323 327 329 331 333 337 343 333 327 320 314 314 313 318 326 330 350 359 3 8 10 51 58 65 74 76 79 86 88 86
311 312 312 309 306 308 310 310 309 310 312 316 319 321 326 330 339 338 340 339 333 326 321 318 320 317 319 330 358 14 21 25 23 25 64 68 64 72 85 89 95 98 86
307 309 311 309 309 309 310 310 309 311 311 312 314 320 327 331 330 330 332 334 331 327 322 321 323 327 333 6 39 32 29 33 30 43 79 79 70 77 86 92 96 97 96
304 303 303 305 309 310 312 307 306 307 308 309 316 321 325 332 336 334 332 330 330 326 318 316 324 333 337 339 354 97 47 44 34 73 94 93 88 90 95 97 100 102 104
299 301 305 309 309 310 312 313 313 312 313 316 317 321 325 330 333 330 328 329 331 330 327 325 327 336 349 353 347 201 196 250 270 163 123 113 100 101 108 110 114 112 103
304 307 309 311 309 308 310 313 314 314 316 318 320 322 325 327 330 330 332 333 332 331 328 326 327 334 338 345 356 0 350 353 53 109 119 123 114 109 107 106 108 109 105
309 307 307 308 309 309 310 313 317 319 318 318 318 320 325 329 331 333 334 334 332 334 334 332 333 337 342 344 353 17 83 81 83 93 97 108 109 111 109 109 109 106 100
308 306 303 304 306 309 313 315 315 315 314 314 318 321 323 324 328 334 338 338 338 339 338 339 347 350 346 350 22 86 94 90 91 91 94 108 111 110 108 106 108 106 105